DW7658 Weather Reports


Display with metric or nautical units.
time (UTC)temp
F
wind
direction
speed
MPH
gust
MPH
rain 1hr
in
rain 24hr
in
rain mn
in
humidity
%
barometer
mb
20260903051540 73 71 0.0 0.0 0.00 0.00 0.00 87 1010.0
20260903050040 73 71 0.0 0.0 0.00 0.00 0.00 87 1009.9
20260903044521 73 70 0.0 0.0 0.00 0.00 0.00 87 1009.8
20260903043019 73 71 0.0 0.0 0.00 0.00 0.00 87 1009.8
20260903041502 73 71 0.0 0.0 0.00 0.00 0.00 87 1009.7
20260903040059 73 71 0.0 0.0 0.00 0.00 0.00 87 1009.8
20260903034543 74 71 0.0 0.0 0.00 0.00 0.00 87 1009.9
20260903033040 74 69 0.0 0.0 0.00 0.00 0.00 87 1010.0
20260903031525 74 61 0.0 0.0 0.00 0.00 0.00 86 1010.1
20260903030020 75 56 0.0 0.0 0.00 0.00 0.00 86 1010.2
20260903024501 75 57 0.0 0.0 0.00 0.00 0.00 86 1010.2
20260903023059 75 56 0.0 0.0 0.00 0.00 0.00 85 1010.2
20260903021540 76 56 0.0 0.0 0.00 0.00 0.00 85 1010.3
20260903020048 76 56 0.0 0.0 0.00 0.00 0.00 85 1010.3
20260903014521 77 57 0.0 0.0 0.00 0.00 0.00 84 1010.2
20260903013016 77 56 0.0 0.0 0.00 0.00 0.00 83 1010.0
20260903011617 78 56 0.0 0.0 0.00 0.00 0.00 83 1010.0
20260903010106 79 56 0.0 0.0 0.00 0.00 0.00 82 1009.7
20260903004534 80 56 0.0 0.0 0.00 0.00 0.00 81 1009.6
20260903003032 80 57 0.0 0.0 0.00 0.00 0.00 79 1009.5
20260903001517 82 57 0.0 0.0 0.00 0.00 0.00 77 1009.4
20260903000014 83 56 0.0 0.0 0.00 0.00 0.00 74 1009.4
20260902234600 84 57 0.0 0.0 0.00 0.00 0.00 73 1009.4
20260902233056 86 56 0.0 0.0 0.00 0.00 0.00 70 1009.4
20260902231545 87 57 0.0 0.0 0.00 0.00 0.00 66 1009.6
20260902230050 88 57 0.0 1.0 0.00 0.00 0.00 65 1009.6
20260902224520 88 6 0.0 0.0 0.00 0.00 0.00 64 1009.6
20260902223033 89 6 0.0 2.0 0.00 0.00 0.00 61 1009.5
20260902221502 90 70 0.0 1.0 0.00 0.00 0.00 60 1009.5
20260902220002 91 57 0.0 2.0 0.00 0.00 0.00 59 1009.6
20260902214548 92 273 0.0 1.0 0.00 0.00 0.00 58 1009.6
20260902213042 93 57 0.0 1.0 0.00 0.00 0.00 56 1009.7
20260902211529 95 360 0.0 1.0 0.00 0.00 0.00 54 1009.7
20260902210024 96 267 0.0 1.0 0.00 0.00 0.00 53 1009.8
20260902204508 96 4 0.0 1.0 0.00 0.00 0.00 54 1009.7
20260902203006 97 236 0.0 2.0 0.00 0.00 0.00 51 1009.9
20260902201553 97 41 0.0 6.0 0.00 0.00 0.00 52 1010.0
20260902200046 97 127 0.0 2.0 0.00 0.00 0.00 51 1010.1
20260902194537 96 115 0.0 2.0 0.00 0.00 0.00 54 1010.3
20260902193024 98 253 1.0 4.0 0.00 0.00 0.00 49 1010.4
20260902191507 98 233 0.0 2.0 0.00 0.00 0.00 52 1010.6
20260902190007 98 272 0.0 3.0 0.00 0.00 0.00 52 1010.8
20260902184549 96 218 0.0 2.0 0.00 0.00 0.00 56 1010.9
20260902183048 97 298 0.0 1.0 0.00 0.00 0.00 52 1011.1
20260902181531 99 118 0.0 3.0 0.00 0.00 0.00 49 1011.1
20260902180029 98 124 0.0 5.0 0.00 0.00 0.00 52 1011.1
20260902174512 99 276 0.0 8.0 0.00 0.00 0.00 50 1011.3
20260902173010 98 155 0.0 4.0 0.00 0.00 0.00 54 1011.5
20260902171552 98 125 1.0 4.0 0.00 0.00 0.00 52 1011.7
20260902170050 97 25 0.0 3.0 0.00 0.00 0.00 56 1011.9
20260902164532 98 94 1.0 3.0 0.00 0.00 0.00 54 1011.9
20260902163028 97 231 0.0 2.0 0.00 0.00 0.00 57 1012.1
20260902161510 95 174 1.0 3.0 0.00 0.00 0.00 56 1012.4
20260902160010 94 63 0.0 4.0 0.00 0.00 0.00 60 1012.4
20260902154554 96 233 0.0 2.0 0.00 0.00 0.00 57 1012.5
20260902153050 96 232 0.0 2.0 0.00 0.00 0.00 57 1012.5
20260902151531 95 239 0.0 2.0 0.00 0.00 0.00 59 1012.5
20260902150028 94 237 0.0 1.0 0.00 0.00 0.00 60 1012.6
20260902144506 94 252 0.0 2.0 0.00 0.00 0.00 62 1012.6
20260902143002 92 236 0.0 0.0 0.00 0.00 0.00 63 1012.7
20260902141542 91 236 0.0 0.0 0.00 0.00 0.00 67 1012.6
20260902140037 90 238 0.0 0.0 0.00 0.00 0.00 68 1012.5
20260902134525 88 233 0.0 1.0 0.00 0.00 0.00 71 1012.4
20260902133011 86 236 0.0 0.0 0.00 0.00 0.00 74 1012.5
20260902131556 84 236 0.0 0.0 0.00 0.00 0.00 77 1012.6
20260902130046 82 236 0.0 0.0 0.00 0.00 0.00 82 1012.5
20260902124526 79 236 0.0 0.0 0.00 0.00 0.00 85 1012.5
20260902123026 76 236 0.0 0.0 0.00 0.00 0.00 85 1012.3
20260902121508 73 238 0.0 0.0 0.00 0.00 0.00 87 1012.4
20260902120004 70 238 0.0 0.0 0.00 0.00 0.00 87 1012.3
20260902114546 0 0.0 0.0 0.00 0.00 0.00 1012.1
20260902113046 0 0.0 0.0 0.00 0.00 0.00 1012.0
20260902111519 0 0.0 0.0 0.00 0.00 0.00 1011.8
20260902110027 0 0.0 0.0 0.00 0.00 0.00 1011.8
20260902104615 0 0.0 0.0 0.00 0.00 0.00 1011.8
20260902103047 0 0.0 0.0 0.00 0.00 0.00 1011.7
20260902101529 0 0.0 0.0 0.00 0.00 0.00 1011.7
20260902100021 0 0.0 0.0 0.00 0.00 0.00 1011.7
20260902094619 0 0.0 0.0 0.00 0.00 0.00 1011.6
20260902093112 0 0.0 0.0 0.00 0.00 0.00 1011.6
20260902091551 0 0.0 0.0 0.00 0.00 0.00 1011.6
20260902090035 0 0.0 0.0 0.00 0.00 0.00 1011.4
20260902084531 0 0.0 0.0 0.00 0.00 0.00 1011.3
20260902083026 0 0.0 0.0 0.00 0.00 0.00 1011.1
20260902081521 0 0.0 0.0 0.00 0.00 0.00 1011.1
20260902080022 0 0.0 0.0 0.00 0.00 0.00 1011.1
20260902074514 0 0.0 0.0 0.00 0.00 0.00 1011.0
20260902073012 70 236 0.0 0.0 0.00 0.00 0.00 87 1010.9
20260902071511 70 236 0.0 0.0 0.00 0.00 0.00 87 1010.9
20260902070053 70 236 0.0 0.0 0.00 0.00 0.00 87 1010.8
20260902064552 70 245 0.0 0.0 0.00 0.00 0.00 87 1010.8
20260902063042 70 243 0.0 0.0 0.00 0.00 0.00 87 1010.7
20260902061534 71 243 0.0 0.0 0.00 0.00 0.00 87 1010.8
20260902060015 71 245 0.0 0.0 0.00 0.00 0.00 87 1010.8
20260902054513 71 243 0.0 0.0 0.00 0.00 0.00 87 1010.9
20260902053055 71 243 0.0 0.0 0.00 0.00 0.00 87 1010.9